Concordia, KS

12:50 PM CST on February 12, 2016 (GMT -0600)
Blosser Municipal

Weather History for KCNK - October, 2012

Change the Weather History Date:

Saturday, October 13, 2012

  Actual Average Record
Temperature  
Mean Temperature 65 °F 57 °F  
Max Temperature 77 °F 68 °F 90 °F (1975)
Min Temperature 53 °F 45 °F 30 °F (2006)
Degree Days  
Heating Degree Days 0 9  
Month to date heating degree days 159 97  
Since 1 July heating degree days 236 170  
Cooling Degree Days 0 1  
Month to date cooling degree days 0 17  
Year to date cooling degree days 1640 1343  
Growing Degree Days 14 (Base 50)    
Moisture  
Dew Point 59 °F    
Average Humidity 85    
Maximum Humidity 100    
Minimum Humidity 69    
Precipitation  
Precipitation 2.48 in 0.06 in 2.48 in (2012)
Month to date precipitation 2.57 0.90  
Year to date precipitation 21.90 24.91  
Snow  
Snow 0.00 in 0.00 in 0.00 in ()
Month to date snowfall 0.0 0.0  
Year to date snowfall 5.8 13.7  
Since 1 July snowfall 0.0 0.0  
Snow Depth 0.00 in    
Sea Level Pressure  
Sea Level Pressure 29.74 in    
Wind  
Wind Speed 11 mph (South)    
Max Wind Speed 31 mph    
Max Gust Speed 39 mph    
Visibility 7 miles    
Events Fog , Rain , Thunderstorm    
T = Trace of Precipitation, MM = Missing Value Source: NWS Daily Summary

Daily Weather History Graph

Daily Weather History Graph

Search for Another Location

Airport or City:

Trip Planner

Search our weather history database for the weather conditions in past years. The results will help you decide how hot, cold, wet, or windy it might be!

Date:

Astronomy

Oct. 13, 2012 Rise Set
Actual Time 7:39 AM CDT 6:53 PM CDT
Civil Twilight 7:12 AM CDT 7:20 PM CDT
Nautical Twilight 6:40 AM CDT 7:51 PM CDT
Astronomical Twilight 6:09 AM CDT 8:22 PM CDT
Moon 5:30 AM CDT (10/13) 5:37 PM CDT (10/13)
Length of Visible Light 12h 08m
Length of Day
11h 14m
Waning Crescent, 5% of the Moon is Illuminated
Oct 13
Waning Crescent
Oct 15
New
Oct 21
First Quarter
Oct 29
Full
Nov 6
Last Quarter

Hourly Weather History & Observations

Time (CDT) Temp. Dew Point Humidity Pressure Visibility Wind Dir Wind Speed Gust Speed Precip Events Conditions
12:41 AM 53.6 °F 53.6 °F 100% 29.93 in 2.0 mi ESE 5.8 mph - N/A   Overcast
12:52 AM 53.6 °F 53.6 °F 100% 29.94 in 1.8 mi Calm Calm - N/A   Overcast
12:55 AM 55.0 °F 54.0 °F 96% 29.94 in 1.8 mi Calm Calm - N/A   Overcast
1:08 AM 53.6 °F 51.8 °F 94% 29.94 in 2.0 mi Calm Calm - N/A   Overcast
1:16 AM 53.6 °F 51.8 °F 94% 29.93 in 1.5 mi Calm Calm - N/A   Overcast
1:25 AM 53.6 °F 51.8 °F 94% 29.92 in 1.0 mi Calm Calm - N/A   Overcast
1:45 AM 53.6 °F 53.6 °F 100% 29.90 in 0.8 mi ESE 4.6 mph - N/A   Mist
1:55 AM 55.9 °F 55.0 °F 97% 29.89 in 1.5 mi SE 9.2 mph - N/A   Overcast
1:58 AM 55.4 °F 55.4 °F 100% 29.89 in 2.0 mi SE 9.2 mph - N/A   Overcast
2:55 AM 60.1 °F 59.0 °F 96% 29.87 in 3.0 mi SSE 10.4 mph - N/A   Overcast
3:41 AM 55.4 °F 53.6 °F 94% 29.95 in 2.0 mi WSW 9.2 mph 24.2 mph 0.05 in Rain Heavy Rain
3:43 AM 55.4 °F 53.6 °F 94% 29.94 in 1.8 mi WSW 9.2 mph - 0.07 in Rain , Thunderstorm Heavy Rain
3:47 AM 55.4 °F 55.4 °F 100% 29.92 in 2.0 mi SW 6.9 mph - 0.09 in Rain , Thunderstorm Rain
3:52 AM 55.4 °F 55.4 °F 100% 29.91 in 3.0 mi SSW 6.9 mph - 0.13 in Rain , Thunderstorm Light Thunderstorms and Rain
3:55 AM 55.9 °F 55.0 °F 97% 29.89 in 4.0 mi SW 5.8 mph - 0.13 in Rain , Thunderstorm Light Thunderstorms and Rain
4:25 AM 55.4 °F 55.4 °F 100% 29.88 in 10.0 mi South 10.4 mph - 0.03 in Rain Light Rain
4:42 AM 57.2 °F 55.4 °F 94% 29.86 in 7.0 mi South 10.4 mph - 0.06 in Rain , Thunderstorm Rain
4:55 AM 59.0 °F 55.9 °F 90% 29.85 in 9.0 mi SSW 15.0 mph - 0.08 in Rain Light Rain
5:55 AM 61.0 °F 57.0 °F 87% 29.81 in 10.0 mi South 21.9 mph 32.2 mph 0.02 in Rain Light Rain
6:55 AM 60.1 °F 57.9 °F 93% 29.85 in 6.0 mi SSW 18.4 mph - 0.10 in Rain , Thunderstorm Rain
7:32 AM 60.8 °F 57.2 °F 88% 29.78 in 8.0 mi South 12.7 mph - N/A Rain Light Rain
7:55 AM 60.1 °F 57.9 °F 93% 29.77 in 10.0 mi South 13.8 mph - 0.13 in   Clear
8:55 AM 61.0 °F 57.9 °F 90% 29.77 in 10.0 mi South 16.1 mph 21.9 mph 0.01 in   Clear
9:55 AM 64.0 °F 60.1 °F 87% 29.77 in 10.0 mi South 12.7 mph - N/A   Clear
10:34 AM 62.6 °F 60.8 °F 94% 29.79 in 10.0 mi South 16.1 mph 24.2 mph N/A   Partly Cloudy
10:55 AM 64.0 °F 60.1 °F 87% 29.78 in 10.0 mi SSE 15.0 mph - N/A   Mostly Cloudy
11:37 AM 64.4 °F 60.8 °F 88% 29.78 in 10.0 mi South 11.5 mph - N/A   Overcast
11:55 AM 64.9 °F 60.1 °F 84% 29.75 in 10.0 mi South 10.4 mph - N/A   Overcast
12:22 PM 66.2 °F 60.8 °F 83% 29.75 in 10.0 mi South 12.7 mph 19.6 mph N/A   Overcast
12:48 PM 69.8 °F 62.6 °F 78% 29.74 in 10.0 mi South 15.0 mph - N/A   Overcast
12:55 PM 70.0 °F 64.0 °F 81% 29.71 in 10.0 mi South 13.8 mph - N/A   Overcast
1:15 PM 69.8 °F 62.6 °F 78% 29.73 in 10.0 mi South 17.3 mph - N/A   Overcast
1:28 PM 69.8 °F 64.4 °F 83% 29.72 in 10.0 mi South 13.8 mph 20.7 mph N/A   Overcast
1:55 PM 72.0 °F 64.0 °F 76% 29.68 in 10.0 mi South 15.0 mph - N/A   Overcast
2:55 PM 75.0 °F 64.9 °F 71% 29.62 in 10.0 mi South 10.4 mph - N/A   Mostly Cloudy
3:55 PM 77.0 °F 66.0 °F 69% 29.61 in 10.0 mi South 10.4 mph - N/A   Mostly Cloudy
4:03 PM 75.2 °F 64.4 °F 69% 29.64 in 10.0 mi South 11.5 mph - N/A   Mostly Cloudy
4:44 PM 75.2 °F 64.4 °F 69% 29.61 in 10.0 mi South 8.1 mph - N/A   Mostly Cloudy
4:55 PM 73.9 °F 64.9 °F 73% 29.58 in 10.0 mi SSW 3.5 mph - N/A   Mostly Cloudy
5:27 PM 71.6 °F 66.2 °F 83% 29.57 in 9.0 mi North 4.6 mph - N/A Rain , Thunderstorm Light Thunderstorms and Rain
5:35 PM 69.8 °F 66.2 °F 88% 29.57 in 2.5 mi NE 11.5 mph - N/A Rain , Thunderstorm Heavy Thunderstorms and Rain
5:39 PM 69.8 °F 64.4 °F 83% 29.59 in 1.5 mi NNE 16.1 mph 21.9 mph 0.16 in Rain , Thunderstorm Heavy Thunderstorms and Rain
5:46 PM 68.0 °F 57.2 °F 68% 29.65 in 0.8 mi Variable 5.8 mph 21.9 mph 0.42 in Rain , Thunderstorm Heavy Thunderstorms and Rain
5:50 PM 64.4 °F 57.2 °F 77% 29.67 in 0.5 mi SSW 27.6 mph 35.7 mph 0.78 in Rain , Thunderstorm Heavy Thunderstorms and Rain
5:55 PM 61.0 °F 57.9 °F 90% 29.63 in 0.5 mi WSW 23.0 mph 39.1 mph 1.05 in Fog , Rain , Thunderstorm Heavy Thunderstorms and Rain
6:11 PM 60.8 °F 60.8 °F 100% 29.63 in 1.5 mi NE 4.6 mph - 0.76 in Rain , Thunderstorm Thunderstorms and Rain
6:13 PM 60.8 °F 60.8 °F 100% 29.63 in 2.0 mi North 5.8 mph - 0.77 in Rain , Thunderstorm Thunderstorms and Rain
6:17 PM 60.8 °F 60.8 °F 100% 29.62 in 4.0 mi Calm Calm - 0.79 in Rain , Thunderstorm Thunderstorms and Rain
6:51 PM 60.8 °F 59.0 °F 94% 29.60 in 10.0 mi SE 6.9 mph - 0.80 in Rain Light Rain
6:55 PM 60.8 °F 59.0 °F 94% 29.60 in 10.0 mi ESE 3.5 mph - N/A Rain Light Rain
7:55 PM 60.1 °F 57.9 °F 93% 29.56 in 10.0 mi Calm Calm - 0.00 in   Overcast
8:55 PM 60.8 °F 59.0 °F 94% 29.62 in 10.0 mi SE 4.6 mph - N/A   Overcast
9:55 PM 61.0 °F 59.0 °F 93% 29.61 in 9.0 mi SSE 9.2 mph - 0.01 in Rain Light Rain
10:12 PM 60.8 °F 57.2 °F 88% 29.61 in 10.0 mi SE 13.8 mph - 0.03 in Rain , Thunderstorm Light Thunderstorms and Rain
10:25 PM 60.8 °F 57.2 °F 88% 29.62 in 10.0 mi SE 10.4 mph 20.7 mph 0.03 in Thunderstorm Scattered Clouds
10:51 PM 60.8 °F 57.2 °F 88% 29.63 in 10.0 mi North 5.8 mph - N/A   Scattered Clouds
10:55 PM 60.1 °F 57.9 °F 93% 29.61 in 10.0 mi North 4.6 mph - 0.03 in   Partly Cloudy
11:55 PM 59.0 °F 57.0 °F 93% 29.60 in 10.0 mi East 5.8 mph - N/A   Scattered Clouds